Weather History for Topeka, KS

Change the Weather History Date:

Monday, April 1, 2013

  Actual Average Record
Temperature  
Mean Temperature 41 °F 50 °F  
Max Temperature 50 °F 62 °F 91 °F (1940)
Min Temperature 31 °F 38 °F 20 °F (1936)
Degree Days  
Heating Degree Days 24 15  
Month to date heating degree days 24 15  
Since 1 July heating degree days 4345 4610  
Cooling Degree Days 0 0  
Month to date cooling degree days 0 0  
Year to date cooling degree days 0 3  
Moisture  
Dew Point 22 °F    
Average Humidity 52    
Maximum Humidity 76    
Minimum Humidity 28    
Precipitation  
Precipitation 0.00 in 0.10 in 2.95 in (1967)
Month to date precipitation 0.00 0.10  
Year to date precipitation 4.45 4.77  
Snow  
Snow 0.00 in 0.00 in 6.80 in (1970)
Month to date snowfall 0.0 0.0  
Year to date snowfall 23.9 11.0  
Since 1 July snowfall 29.3 17.5  
Snow Depth 0.00 in    
Sea Level Pressure  
Sea Level Pressure 30.24 in    
Wind  
Wind Speed 12 mph (North)    
Max Wind Speed 26 mph    
Max Gust Speed 36 mph    
Visibility 10 miles    
Events      
T = Trace of Precipitation, MM = Missing Value Source: NWS Daily Summary

Daily Weather History Graph

Daily Weather History Graph

Search for Another Location

Airport:

Trip Planner

Search our weather history database for the weather conditions in past years. The results will help you decide how hot, cold, wet, or windy it might be!

Date:

Astronomy

Apr. 01, 2013 Rise Set
Actual Time 7:06 AM CDT 7:46 PM CDT
Civil Twilight 6:39 AM CDT 8:13 PM CDT
Nautical Twilight 6:07 AM CDT 8:45 PM CDT
Astronomical Twilight 5:35 AM CDT 9:18 PM CDT
Moon 12:53 AM CDT (4/1) 10:56 AM CDT (4/1)
Length of Visible Light 13h 33m
Length of Day
12h 39m
Waning Gibbous, 67% of the Moon is Illuminated
Apr 1
Waning Gibbous
Apr 2
Last Quarter
Apr 10
New
Apr 18
First Quarter
Apr 25
Full

Hourly Weather History & Observations

Time (CDT) Temp. Windchill Dew Point Humidity Pressure Visibility Wind Dir Wind Speed Gust Speed Precip Events Conditions
12:53 AM 50.0 °F - 28.9 °F 44% 30.04 in 10.0 mi North 19.6 mph 31.1 mph N/A   Overcast
1:53 AM 46.9 °F - 30.0 °F 52% 30.09 in 10.0 mi NNE 17.3 mph - N/A   Overcast
2:53 AM 44.1 °F 37.4 °F 34.0 °F 68% 30.12 in 10.0 mi NNE 13.8 mph 20.7 mph N/A   Partly Cloudy
3:51 AM 41.0 °F 33.1 °F 33.8 °F 76% 30.14 in 10.0 mi North 15.0 mph - N/A   Mostly Cloudy
3:53 AM 41.0 °F 33.1 °F 33.8 °F 76% 30.14 in 10.0 mi North 15.0 mph - N/A   Mostly Cloudy
4:53 AM 39.0 °F 31.0 °F 32.0 °F 76% 30.18 in 10.0 mi North 13.8 mph 23.0 mph N/A   Overcast
5:04 AM 37.9 °F 29.2 °F 30.9 °F 76% 30.18 in 10.0 mi North 15.0 mph 25.3 mph N/A   Overcast
5:28 AM 37.0 °F 28.1 °F 30.0 °F 76% 30.19 in 10.0 mi North 15.0 mph 25.3 mph N/A   Overcast
5:53 AM 37.0 °F 27.0 °F 30.0 °F 76% 30.21 in 10.0 mi North 18.4 mph 23.0 mph N/A   Overcast
6:14 AM 36.0 °F 26.0 °F 28.9 °F 76% 30.22 in 10.0 mi NNE 17.3 mph 24.2 mph N/A   Overcast
6:32 AM 36.0 °F 27.5 °F 28.0 °F 73% 30.23 in 10.0 mi North 12.7 mph - N/A   Overcast
6:53 AM 35.1 °F 27.4 °F 26.1 °F 70% 30.25 in 10.0 mi North 10.4 mph - N/A   Mostly Cloudy
7:17 AM 33.1 °F 24.4 °F 23.0 °F 66% 30.26 in 10.0 mi North 11.5 mph - N/A   Scattered Clouds
7:53 AM 33.1 °F 22.6 °F 19.0 °F 56% 30.28 in 10.0 mi North 16.1 mph 23.0 mph N/A   Clear
8:53 AM 34.0 °F 23.4 °F 15.1 °F 46% 30.30 in 10.0 mi North 17.3 mph 27.6 mph N/A   Partly Cloudy
9:53 AM 36.0 °F 26.0 °F 17.1 °F 46% 30.32 in 10.0 mi North 17.3 mph - N/A   Clear
10:53 AM 39.9 °F 31.4 °F 17.1 °F 40% 30.32 in 10.0 mi North 16.1 mph - N/A   Clear
11:53 AM 41.0 °F 33.9 °F 18.0 °F 40% 30.32 in 10.0 mi NE 12.7 mph - N/A   Clear
12:53 PM 43.0 °F 35.7 °F 15.1 °F 32% 30.31 in 10.0 mi North 15.0 mph 20.7 mph N/A   Scattered Clouds
1:53 PM 44.1 °F 37.7 °F 15.1 °F 31% 30.32 in 10.0 mi NNE 12.7 mph - N/A   Overcast
2:53 PM 44.6 °F 38.8 °F 15.8 °F 31% 30.29 in 10.0 mi NNE 11.5 mph 18.4 mph N/A   Overcast
3:53 PM 45.0 °F 40.1 °F 16.0 °F 31% 30.28 in 10.0 mi NNW 9.2 mph - N/A   Mostly Cloudy
4:53 PM 48.2 °F - 17.6 °F 30% 30.24 in 10.0 mi North 13.8 mph - N/A   Mostly Cloudy
5:53 PM 46.4 °F 41.9 °F 15.8 °F 29% 30.24 in 10.0 mi North 9.2 mph - N/A   Partly Cloudy
6:53 PM 45.0 °F 39.3 °F 16.0 °F 31% 30.25 in 10.0 mi NE 11.5 mph - N/A   Clear
7:53 PM 41.0 °F 35.2 °F 16.0 °F 36% 30.26 in 10.0 mi North 9.2 mph - N/A   Clear
8:53 PM 37.9 °F 34.4 °F 17.1 °F 43% 30.28 in 10.0 mi North 4.6 mph - N/A   Clear
9:53 PM 36.0 °F 30.3 °F 17.1 °F 46% 30.31 in 10.0 mi NNE 6.9 mph - N/A   Clear
10:53 PM 34.0 °F 28.0 °F 18.0 °F 52% 30.33 in 10.0 mi North 6.9 mph - N/A   Clear
11:53 PM 33.1 °F 26.1 °F 18.0 °F 54% 30.32 in 10.0 mi NNE 8.1 mph - N/A   Clear